Location: Voyageurs National Park
(48.5020°N, 92.9292°W)
Time: 19:07:43
(UTC-06:00)

Cosmos 1844 - Pass Details

Date: 19 January 2018
Orbit: 824 x 866 km, 70.9° (Epoch: 21 February)

Event Time Altitude Azimuth Distance (km) Brightness Sun altitude
Exits shadow 05:01:02 16° 183° (S) 2,116 5.7 -28.4°
Maximum altitude 05:05:32 53° 111° (ESE) 1,045 4.4 -27.7°
Drops below altitude 10° 05:11:03 10° 36° (NE) 2,480 6.5 -26.8°
Sets 05:13:32 0° 32° (NNE) 3,413 7.3 -26.3°
